Location: Milton Keynes
(52.0316°N, 0.7531°W)
Time: 23:38:22
(UTC+00:00)

N. Korean satellite - Pass Details

Date: 03 October 2020
Orbit: 452 x 505 km, 97.2° (Epoch: 29 October)

Event Time Altitude Azimuth Distance (km) Brightness Sun altitude
Rises 05:55:18 0° 23° (NNE) 2,578 10.7 -12.0°
Reaches altitude 10° 05:57:43 10° 38° (NE) 1,680 10.0 -11.6°
Maximum altitude 06:00:39 23° 93° (E) 1,064 9.3 -11.1°
Drops below altitude 10° 06:03:32 10° 148° (SSE) 1,642 9.6 -10.7°
Sets 06:05:51 0° 163° (SSE) 2,503 10.3 -10.3°
